SWARM C (39453 NORAD) Tracking and Keplerian Element Data

This shows tracking and keplerian element data for the satellite.

Feedback or suggestion? Click here.




ElementValue
Catalog39453
NameSWARM C
Epoch Orbit26106
Epoch Day198.91429047
Epoch Year2018
RAAN27.5987
Inclination87.3459
Eccentricity0.000248
Argument of Perigee98.8889
Mean Anonmoly261.2648
Mean Motion15.43217776
Decay Rate8.28E-06
L11 39453U 13067C 18198.91429047 .00000828 00000-0 17627-4 0 9999
L22 39453 87.3459 27.5987 0002480 98.8889 261.2648 15.43217776261061

Live tracking and technical data element details for SWARM C (NORAD 39453). SWARM C can be tracked NOW for your location showing map with azimuth and elevation plus other details from your city location.

Track the satellite on the map from your city or location and see movement details for azimuth, elevation, latitude, longitude, range, height, and movement on the map or in text.







IsCatalogInMostPopularTable: catalog: 39453, numindb: 57
Update: records affected: 1



GetName: 39453 SWARM C

Hit Count: updated at: Thu, 19 Jul 2018 21:27:09 GMT